{"data":{"norad_id":55958,"epoch":"2026-09-20T07:12:15.152832Z","epoch_age_seconds":123492,"freshness":"FRESH","line1":"1 55958U 23037AW  26263.30017538 -.00001484  00000+0 -11665-3 0  9993","line2":"2 55958  69.9984 133.7853 0002583 267.5907  92.4956 14.98312583193623","mean_motion":14.98312583,"eccentricity":0.0002583,"inclination_deg":69.9984,"raan_deg":133.7853,"arg_perigee_deg":267.5907,"mean_anomaly_deg":92.4956,"bstar":-0.00011665,"rev_number":19362,"period_min":96.10811631287,"perigee_km":570.31450336586,"apogee_km":573.905000838,"semimajor_km":6950.2467521019,"source":"CELESTRAK","updated_at":"2026-09-21T09:00:33.347297Z"}}